Location: McCall
(45.0000°N, 116.0000°W)
Time: 17:52:56
(UTC-07:00)

Amateur Radio Satellites - All Passes

Search period start: 14 December 2017 17:22
Search period end: 15 December 2017 17:22
Location: McCall, 45.0000°N, 116.0000°W

Satellite Date Start Highest point End Downlink Frequencies (MHz)
Time Altitude Azimuth
LilacSat-2 14 Dec 17:23:06 17:26:37 36° 71° (ENE) 17:30:10 437.200
ITUPSAT 1 14 Dec 17:26:56 17:30:56 27° 295° (WNW) 17:34:56 437.325
RS-15 14 Dec 17:31:04 17:42:52 48° 323° (NW) 17:54:30 29.354- 29.394
STARS 14 Dec 17:36:06 17:38:20 14° 90° (E) 17:40:32 437.465
XW-2D 14 Dec 17:37:18 17:40:58 50° 73° (ENE) 17:44:41 145.860 - 145.880
O/OREOS (USA 219) 14 Dec 17:38:58 17:42:33 23° 53° (NE) 17:46:07 437.305
NUDT-PHONESAT 14 Dec 17:42:09 17:45:33 37° 71° (ENE) 17:49:01 437.300
KAITUO 1B 14 Dec 17:45:41 17:49:15 43° 72° (ENE) 17:52:51 145.475/437.950
nSIGHT-1 14 Dec 17:48:09 17:51:24 85° 31° (NNE) 17:54:37 .
DOVE 4 14 Dec 17:51:41 17:56:06 27° 266° (W) 18:00:26 437.250
XW-2B 14 Dec 17:53:04 17:56:50 76° 77° (ENE) 18:00:40 145.730 - 145.750
CUBESAT XI-V 14 Dec 18:01:39 18:05:43 29° 293° (WNW) 18:09:45 437.345
XW-2F 14 Dec 18:05:10 18:08:56 82° 260° (W) 18:12:45 145.980 - 146.000
CUBEBUG 2 14 Dec 18:06:24 18:09:13 18° 64° (ENE) 18:12:01 437.445
CUTE-I 14 Dec 18:07:35 18:12:58 87° 75° (ENE) 18:18:22 437.470
UWE-3 14 Dec 18:08:15 18:09:06 11° 60° (ENE) 18:09:56 435.000/436.395/437.385
XW-2C 14 Dec 18:20:37 18:24:17 48° 261° (W) 18:28:00 145.795 - 145.815
PCSat 14 Dec 18:27:04 18:31:18 24° 108° (ESE) 18:35:34 145.827
KKS-1 14 Dec 18:27:48 18:32:14 71° 287° (WNW) 18:36:37 437.445
ISS 14 Dec 18:30:03 18:33:17 55° 214° (SW) 18:36:29 437.550
SEEDS 14 Dec 18:30:08 18:33:52 31° 69° (ENE) 18:37:38 437.485
SO-50 14 Dec 18:31:43 18:34:05 14° 330° (NNW) 18:36:29 436.795
ZACube-1 14 Dec 18:33:25 18:34:06 10° 59° (ENE) 18:34:46 437.345
AAUSAT CUBESAT 2 14 Dec 18:49:28 18:52:44 23° 66° (ENE) 18:56:02 437.432
CUTE 1.7 + AOD 2 14 Dec 18:52:33 18:56:48 88° 76° (ENE) 19:01:07 437.475
Oscar 11 14 Dec 18:52:44 18:53:42 11° 59° (ENE) 18:54:41 .
LilacSat-2 14 Dec 18:58:24 19:01:01 18° 268° (W) 19:03:40 437.200
HO-68 14 Dec 19:02:12 19:09:24 76° 255° (WSW) 19:16:38 435.675
AO-73 14 Dec 19:04:47 19:07:44 19° 65° (ENE) 19:10:42 145.935
STARS 14 Dec 19:10:45 19:15:04 61° 288° (WNW) 19:19:21 437.465
XW-2D 14 Dec 19:13:43 19:15:27 13° 270° (W) 19:17:09 145.860 - 145.880
NUDT-PHONESAT 14 Dec 19:17:11 19:19:33 16° 268° (W) 19:21:56 437.300
O/OREOS (USA 219) 14 Dec 19:17:53 19:22:10 43° 253° (WSW) 19:26:24 437.305
KAITUO 1B 14 Dec 19:21:22 19:23:27 14° 269° (W) 19:25:32 145.475/437.950
nSIGHT-1 14 Dec 19:25:24 19:27:11 14° 227° (SW) 19:28:58 .
UWE-3 14 Dec 19:40:45 19:44:54 83° 258° (WSW) 19:49:04 435.000/436.395/437.385
CUBEBUG 2 14 Dec 19:41:30 19:45:32 45° 261° (W) 19:49:32 437.445
BEESAT 3 14 Dec 19:43:53 19:45:57 14° 110° (ESE) 19:48:01 437.485
RS-15 14 Dec 19:49:02 19:59:16 29° 355° (N) 20:09:11 29.354- 29.394
XW-2A 14 Dec 19:49:10 19:52:29 74° 258° (WSW) 19:55:52 145.665 - 145.685
CUTE-I 14 Dec 19:51:14 19:53:42 13° 272° (W) 19:56:10 437.470
STRAND 1 14 Dec 20:02:05 20:07:05 53° 100° (E) 20:12:02 437.568
ZACube-1 14 Dec 20:05:34 20:09:42 85° 260° (W) 20:13:53 437.345
SEEDS 14 Dec 20:06:03 20:09:33 25° 266° (W) 20:13:05 437.485
PCSat 14 Dec 20:08:59 20:14:19 56° 306° (NW) 20:19:40 145.827
FO-29 14 Dec 20:10:11 20:15:45 25° 89° (E) 20:20:47 435.910
AAUSAT CUBESAT 2 14 Dec 20:24:10 20:27:59 35° 263° (W) 20:31:51 437.432
Oscar 11 14 Dec 20:24:48 20:29:07 90° 275° (W) 20:33:29 .
BEESAT 2 14 Dec 20:25:34 20:26:13 10° 108° (ESE) 20:26:52 435.950
AO-73 14 Dec 20:39:48 20:43:41 40° 262° (W) 20:47:37 145.935
HO-68 14 Dec 20:54:48 20:58:17 14° 274° (W) 21:01:46 435.675
UNISAT 6 14 Dec 21:16:50 21:18:10 11° 89° (E) 21:19:30 437.425
BEESAT 3 14 Dec 21:19:02 21:22:59 63° 308° (NW) 21:26:58 437.485
DELFI C3 14 Dec 21:24:10 21:28:09 83° 78° (ENE) 21:32:11 145.870
Max Valier Satellite 14 Dec 21:32:30 21:36:07 70° 75° (ENE) 21:39:48 145.860
STRAND 1 14 Dec 21:42:02 21:45:54 22° 298° (WNW) 21:49:45 437.568
FO-29 14 Dec 21:54:27 22:01:23 61° 291° (WNW) 22:07:28 435.910
PCSat 14 Dec 21:56:06 21:58:56 14° 329° (NNW) 22:01:47 145.827
BEESAT 2 14 Dec 21:59:15 22:03:17 83° 307° (NW) 22:07:22 435.950
EO-88 14 Dec 22:00:06 22:03:43 78° 257° (WSW) 22:07:24 145.990 - 145.960
AO-85 14 Dec 22:01:51 22:05:08 26° 114° (ESE) 22:08:35 145.980
RS-15 14 Dec 22:04:57 22:16:06 40° 30° (NNE) 22:26:41 29.354- 29.394
LO-87 14 Dec 22:30:34 22:33:39 29° 70° (ENE) 22:36:44 145.935 - 145.965
ESTCUBE 1 14 Dec 22:33:36 22:37:31 30° 67° (ENE) 22:41:28 437.505/2401.250
FALCONSAT 3 14 Dec 22:44:04 22:44:43 10° 160° (SSE) 22:45:21 435.103
TIGRISAT 14 Dec 22:47:39 22:52:00 88° 276° (W) 22:56:25 435.000
UNISAT 6 14 Dec 22:51:01 22:55:21 75° 286° (WNW) 22:59:46 437.425
BEESAT 3 14 Dec 22:59:47 23:01:18 12° 328° (NNW) 23:02:50 437.485
AIST 2D 14 Dec 23:00:31 23:02:24 14° 91° (E) 23:04:16 435.315
SPROUT 14 Dec 23:10:00 23:12:49 18° 63° (ENE) 23:15:40 437.525
PRISM 14 Dec 23:25:52 23:30:00 76° 103° (ESE) 23:34:04 437.425
SO-50 14 Dec 23:37:22 23:41:31 31° 43° (NE) 23:45:44 436.795
BEESAT 2 14 Dec 23:39:23 23:41:38 14° 325° (NW) 23:43:54 435.950
AO-85 14 Dec 23:41:46 23:45:23 33° 315° (NW) 23:49:15 145.980
FO-29 14 Dec 23:41:48 23:44:50 13° 313° (NW) 23:47:44 435.910
POLYITAN 1 14 Dec 23:49:33 23:52:27 18° 92° (E) 23:55:21 437.675
LO-87 15 Dec 00:04:31 00:07:05 19° 267° (W) 00:09:39 145.935 - 145.965
VELOX 1 15 Dec 00:05:41 00:09:51 41° 70° (ENE) 00:14:03 145.980
ESTCUBE 1 15 Dec 00:10:18 00:14:16 30° 264° (W) 00:18:16 437.505/2401.250
QB50P2 15 Dec 00:14:32 00:18:26 36° 97° (E) 00:22:21 145.880/145.840
RS-15 15 Dec 00:18:06 00:30:00 84° 238° (WSW) 00:41:13 29.354- 29.394
DUCHIFAT 1 15 Dec 00:19:23 00:23:00 28° 96° (E) 00:26:38 145.980
FALCONSAT 3 15 Dec 00:20:27 00:23:01 18° 175° (S) 00:25:35 435.103
TIGRISAT 15 Dec 00:27:12 00:28:01 10° 301° (WNW) 00:28:50 435.000
AIST 2D 15 Dec 00:32:24 00:35:45 40° 288° (WNW) 00:39:05 435.315
SPROUT 15 Dec 00:44:14 00:48:21 48° 261° (W) 00:52:29 437.525
NANOSAT C BR1 15 Dec 00:45:37 00:49:48 63° 102° (ESE) 00:53:58 145.865
UKube-1 15 Dec 00:45:46 00:48:30 17° 62° (ENE) 00:51:13 .
BUGSAT 1 15 Dec 00:59:18 01:02:06 18° 93° (E) 01:04:54 437.445
DX 1 15 Dec 01:00:38 01:04:37 35° 68° (ENE) 01:08:37 434.975-435.025
EO-79 15 Dec 01:01:09 01:05:23 78° 283° (WNW) 01:09:36 145.935-145.965
PRISM 15 Dec 01:03:14 01:04:39 12° 301° (WNW) 01:06:02 437.425
50 SAT 15 Dec 01:08:22 01:11:17 34° 71° (ENE) 01:14:12 437.505
Gurwin Techsat 1B 15 Dec 01:08:30 01:10:11 11° 87° (E) 01:11:52 435.225
SO-50 15 Dec 01:17:42 01:22:05 41° 242° (WSW) 01:26:31 436.795
POLYITAN 1 15 Dec 01:24:25 01:28:27 44° 288° (WNW) 01:32:28 437.675
AO-91 15 Dec 01:31:58 01:34:17 17° 93° (E) 01:36:33 145.960
VELOX 1 15 Dec 01:43:03 01:46:27 21° 267° (W) 01:49:52 145.980
QB50P2 15 Dec 01:50:44 01:54:02 22° 294° (WNW) 01:57:19 145.880/145.840
DUCHIFAT 1 15 Dec 01:55:02 01:58:36 28° 293° (WNW) 02:02:11 145.980
FALCONSAT 3 15 Dec 01:59:07 02:01:24 16° 191° (S) 02:03:40 435.103
Oscar 19 15 Dec 02:00:49 02:05:51 47° 99° (E) 02:10:52 437.125/150
MOZHAYETS 4 15 Dec 02:05:29 02:09:07 24° 65° (ENE) 02:12:47
YUBILEINY 15 Dec 02:07:00 02:13:07 21° 77° (ENE) 02:19:14 435.215
UKube-1 15 Dec 02:19:50 02:24:05 55° 259° (W) 02:28:20 .
NANOSAT C BR1 15 Dec 02:22:48 02:25:00 14° 299° (WNW) 02:27:13 145.865
BEESAT 15 Dec 02:29:11 02:33:18 31° 66° (ENE) 02:37:28 436.000
RS-15 15 Dec 02:32:22 02:40:31 23° 261° (W) 02:48:27 29.354- 29.394
BUGSAT 1 15 Dec 02:33:50 02:37:37 40° 289° (WNW) 02:41:25 437.445
DX 1 15 Dec 02:37:18 02:40:51 24° 265° (W) 02:44:26 434.975-435.025
AO-7 15 Dec 02:39:51 02:44:38 16° 87° (E) 02:49:24 .
50 SAT 15 Dec 02:41:57 02:43:21 12° 268° (W) 02:44:46 437.505
Gurwin Techsat 1B 15 Dec 02:45:33 02:50:54 85° 104° (ESE) 02:56:13 435.225
ITUPSAT 1 15 Dec 02:57:11 03:01:48 54° 71° (ENE) 03:06:27 437.325
AO-91 15 Dec 03:07:52 03:10:53 27° 291° (WNW) 03:13:49 145.960
PCSat 15 Dec 03:11:45 03:16:39 33° 47° (NE) 03:21:31 145.827
ITAMSAT 1 15 Dec 03:15:38 03:18:08 13° 89° (E) 03:20:38 435.822/435.867
CUBESAT XI-V 15 Dec 03:29:01 03:33:21 40° 70° (ENE) 03:37:45 437.345
M-CUBED/EXP-1 PRIME 15 Dec 03:34:06 03:37:13 18° 96° (E) 03:40:12 437.505
Oscar 19 15 Dec 03:40:41 03:44:54 25° 297° (WNW) 03:49:06 437.125/150
MOZHAYETS 4 15 Dec 03:41:49 03:46:04 38° 262° (W) 03:50:21
KKS-1 15 Dec 03:52:55 03:55:39 16° 61° (ENE) 03:58:24 437.445
BEESAT 3 15 Dec 03:56:56 03:59:50 19° 40° (NE) 04:02:42 437.485
YUBILEINY 15 Dec 03:59:53 04:08:44 86° 279° (W) 04:17:39 435.215
BEESAT 15 Dec 04:06:46 04:11:01 32° 264° (W) 04:15:17 436.000
Gurwin Techsat 1B 15 Dec 04:27:06 04:30:08 16° 303° (WNW) 04:33:10 435.225
AO-7 15 Dec 04:30:18 04:38:43 77° 107° (ESE) 04:47:06 .
STARS 15 Dec 04:34:20 04:37:11 17° 62° (ENE) 04:40:02 437.465
ITUPSAT 1 15 Dec 04:36:44 04:39:57 18° 268° (W) 04:43:12 437.325
BEESAT 2 15 Dec 04:38:09 04:40:49 17° 37° (NE) 04:43:27 435.950
AO-85 15 Dec 04:50:43 04:52:39 12° 29° (NNE) 04:54:38 145.980
ITAMSAT 1 15 Dec 04:53:01 04:58:14 81° 285° (WNW) 05:03:24 435.822/435.867
PCSat 15 Dec 04:55:02 05:00:11 45° 246° (WSW) 05:05:18 145.827
CUBESAT XI-V 15 Dec 05:07:09 05:10:52 23° 267° (W) 05:14:37 437.345
M-CUBED/EXP-1 PRIME 15 Dec 05:07:27 05:11:53 50° 294° (WNW) 05:16:01 437.505
KKS-1 15 Dec 05:27:20 05:31:44 60° 258° (WSW) 05:36:10 437.445
BEESAT 3 15 Dec 05:33:50 05:37:42 57° 239° (WSW) 05:41:29 437.485
STRAND 1 15 Dec 05:43:52 05:46:26 14° 57° (ENE) 05:49:00 437.568
DOVE 4 15 Dec 05:47:56 05:52:30 82° 101° (E) 05:56:47 437.250
XW-2C 15 Dec 05:52:00 05:54:17 15° 91° (E) 05:56:34 145.795 - 145.815
YUBILEINY 15 Dec 06:00:40 06:06:58 21° 301° (WNW) 06:13:18 435.215
STARS 15 Dec 06:08:48 06:13:06 54° 259° (W) 06:17:26 437.465
BEESAT 2 15 Dec 06:14:59 06:19:02 76° 236° (SW) 06:22:59 435.950
CUTE-I 15 Dec 06:23:01 06:27:39 29° 95° (E) 06:32:15 437.470
AO-7 15 Dec 06:23:55 06:30:45 29° 308° (NW) 06:37:35 .
FO-29 15 Dec 06:24:17 06:29:33 20° 53° (NE) 06:34:46 435.910
LilacSat-2 15 Dec 06:28:04 06:31:46 41° 98° (E) 06:35:27 437.200
HO-68 15 Dec 06:29:06 06:33:56 19° 89° (E) 06:38:44 435.675
AO-85 15 Dec 06:29:31 06:34:07 49° 50° (NE) 06:39:01 145.980
ITAMSAT 1 15 Dec 06:34:38 06:36:51 13° 305° (NW) 06:39:05 435.822/435.867
CUTE 1.7 + AOD 2 15 Dec 06:36:53 06:39:04 14° 89° (E) 06:41:15 437.475
XW-2D 15 Dec 06:41:31 06:45:20 58° 100° (E) 06:49:07 145.860 - 145.880
NUDT-PHONESAT 15 Dec 06:43:30 06:47:03 38° 98° (E) 06:50:34 437.300
NO-84 15 Dec 06:48:13 06:50:53 29° 133° (SE) 06:53:42 435.350 FM
KAITUO 1B 15 Dec 06:48:15 06:51:56 47° 99° (E) 06:55:36 145.475/437.950
XW-2B 15 Dec 06:57:24 07:01:16 86° 103° (ESE) 07:05:07 145.730 - 145.750
XW-2F 15 Dec 07:08:57 07:12:48 73° 284° (WNW) 07:16:36 145.980 - 146.000
STRAND 1 15 Dec 07:19:45 07:24:53 90° 253° (WSW) 07:30:02 437.568
XW-2C 15 Dec 07:25:00 07:28:41 43° 288° (WNW) 07:32:20 145.795 - 145.815
DOVE 4 15 Dec 07:27:43 07:29:26 12° 302° (WNW) 07:31:07 437.250
UWE-3 15 Dec 07:28:47 07:31:40 17° 92° (E) 07:34:35 435.000/436.395/437.385
CUBEBUG 2 15 Dec 07:29:47 07:33:32 29° 96° (E) 07:37:22 437.445
SEEDS 15 Dec 07:46:48 07:50:55 45° 98° (E) 07:54:58 437.485
ZACube-1 15 Dec 07:52:26 07:55:14 17° 91° (E) 07:58:04 437.345
O/OREOS (USA 219) 15 Dec 07:54:20 07:57:13 17° 100° (E) 08:00:05 437.305
CUTE-I 15 Dec 08:02:50 08:07:47 40° 293° (WNW) 08:12:42 437.470
LilacSat-2 15 Dec 08:03:10 08:05:43 17° 295° (WNW) 08:08:16 437.200
AAUSAT CUBESAT 2 15 Dec 08:03:55 08:07:37 30° 96° (E) 08:11:17 437.432
FO-29 15 Dec 08:05:38 08:13:24 78° 73° (ENE) 08:21:13 435.910
AO-85 15 Dec 08:10:20 08:14:21 26° 246° (WSW) 08:18:34 145.980
CUTE 1.7 + AOD 2 15 Dec 08:11:02 08:15:17 60° 287° (WNW) 08:19:30 437.475
Oscar 11 15 Dec 08:11:16 08:13:46 15° 90° (E) 08:16:16 .
TIGRISAT 15 Dec 08:14:52 08:16:11 11° 59° (ENE) 08:17:31 435.000
HO-68 15 Dec 08:15:18 08:22:31 85° 288° (WNW) 08:29:40 435.675
XW-2D 15 Dec 08:17:15 08:19:01 13° 297° (WNW) 08:20:46 145.860 - 145.880
UNISAT 6 15 Dec 08:17:32 08:19:35 13° 61° (ENE) 08:21:37 437.425
NUDT-PHONESAT 15 Dec 08:18:07 08:20:35 17° 295° (WNW) 08:23:02 437.300
KAITUO 1B 15 Dec 08:23:22 08:25:31 15° 296° (WNW) 08:27:40 145.475/437.950
AO-73 15 Dec 08:25:07 08:29:02 31° 96° (E) 08:33:00 145.935
NO-84 15 Dec 08:25:08 08:28:02 34° 333° (NNW) 08:31:09 435.350 FM
XW-2A 15 Dec 08:40:59 08:44:26 86° 103° (ESE) 08:47:51 145.665 - 145.685
STRAND 1 15 Dec 09:03:03 09:04:46 12° 273° (W) 09:06:30 437.568
UWE-3 15 Dec 09:04:12 09:08:21 48° 288° (WNW) 09:12:36 435.000/436.395/437.385
CUBEBUG 2 15 Dec 09:06:29 09:10:05 27° 292° (WNW) 09:13:45 437.445
SEEDS 15 Dec 09:23:18 09:26:15 19° 296° (WNW) 09:29:11 437.485
ZACube-1 15 Dec 09:27:33 09:31:47 51° 287° (WNW) 09:36:04 437.345
O/OREOS (USA 219) 15 Dec 09:31:39 09:36:09 56° 297° (WNW) 09:40:40 437.305
AAUSAT CUBESAT 2 15 Dec 09:39:31 09:42:57 25° 293° (WNW) 09:46:22 437.432
Oscar 11 15 Dec 09:45:58 09:50:15 56° 287° (WNW) 09:54:31 .
TIGRISAT 15 Dec 09:47:58 09:52:15 82° 256° (WSW) 09:56:32 435.000
UNISAT 6 15 Dec 09:51:29 09:55:46 68° 259° (WSW) 10:00:02 437.425
FO-29 15 Dec 09:52:56 09:59:03 25° 271° (W) 10:05:15 435.910
AO-73 15 Dec 10:01:29 10:05:10 27° 292° (WNW) 10:08:53 145.935
NO-84 15 Dec 10:03:53 10:06:06 16° 355° (N) 10:08:25 435.350 FM
HO-68 15 Dec 10:04:26 10:09:16 20° 308° (NW) 10:14:05 435.675
PRISM 15 Dec 10:16:18 10:20:26 69° 74° (ENE) 10:24:35 437.425
EO-79 15 Dec 10:22:52 10:23:59 11° 59° (ENE) 10:25:05 145.935-145.965
DELFI C3 15 Dec 10:33:28 10:37:25 78° 284° (WNW) 10:41:20 145.870
Max Valier Satellite 15 Dec 10:33:46 10:37:30 74° 101° (E) 10:41:14 145.860
POLYITAN 1 15 Dec 10:44:08 10:46:57 18° 64° (ENE) 10:49:48 437.675
EO-88 15 Dec 10:59:57 11:03:38 78° 284° (WNW) 11:07:17 145.990 - 145.960
AIST 2D 15 Dec 11:07:33 11:11:04 90° 268° (W) 11:14:37 435.315
QB50P2 15 Dec 11:08:44 11:12:32 34° 69° (ENE) 11:16:21 145.880/145.840
ISS 15 Dec 11:12:12 11:14:13 15° 134° (SE) 11:16:14 437.550
DUCHIFAT 1 15 Dec 11:12:53 11:16:22 27° 67° (ENE) 11:19:52 145.980
LO-87 15 Dec 11:28:13 11:31:15 26° 96° (E) 11:34:17 145.935 - 145.965
NANOSAT C BR1 15 Dec 11:39:05 11:43:11 58° 73° (ENE) 11:47:18 145.865
NO-84 15 Dec 11:41:34 11:44:21 21° 16° (NNE) 11:47:16 435.350 FM
Oscar 19 15 Dec 11:43:52 11:46:08 13° 56° (NE) 11:48:23 437.125/150
BUGSAT 1 15 Dec 11:51:06 11:53:44 17° 64° (ENE) 11:56:23 437.445
PRISM 15 Dec 11:54:47 11:56:08 11° 271° (W) 11:57:30 437.425
EO-79 15 Dec 11:54:53 11:59:05 83° 258° (WSW) 12:03:18 145.935-145.965
ESTCUBE 1 15 Dec 11:59:56 12:04:21 48° 99° (E) 12:08:44 437.505/2401.250
nSIGHT-1 15 Dec 12:02:04 12:05:13 54° 145° (SE) 12:08:23 .
YUBILEINY 15 Dec 12:14:09 12:17:07 12° 49° (NE) 12:20:05 435.215
POLYITAN 1 15 Dec 12:18:23 12:22:24 46° 261° (W) 12:26:27 437.675
SPROUT 15 Dec 12:28:00 12:31:25 23° 94° (E) 12:34:49 437.525
AO-91 15 Dec 12:29:44 12:33:40 26° 68° (ENE) 12:37:18 145.960
Gurwin Techsat 1B 15 Dec 12:30:11 12:34:23 25° 62° (ENE) 12:38:37 435.225
RS-15 15 Dec 12:41:26 12:44:19 11° 91° (E) 12:47:10 29.354- 29.394
QB50P2 15 Dec 12:45:05 12:48:23 22° 266° (W) 12:51:43 145.880/145.840
ISS 15 Dec 12:47:02 12:50:19 82° 331° (NNW) 12:53:38 437.550
DUCHIFAT 1 15 Dec 12:48:20 12:51:56 29° 264° (W) 12:55:36 145.980
LO-87 15 Dec 13:01:49 13:04:31 21° 292° (WNW) 13:07:13 145.935 - 145.965
NANOSAT C BR1 15 Dec 13:17:11 13:19:15 13° 270° (W) 13:21:19 145.865
NO-84 15 Dec 13:18:25 13:22:06 68° 35° (NE) 13:26:04 435.350 FM
Oscar 19 15 Dec 13:19:29 13:24:37 83° 74° (ENE) 13:29:49 437.125/150
BUGSAT 1 15 Dec 13:24:54 13:28:46 44° 261° (W) 13:32:39 437.445
VELOX 1 15 Dec 13:29:32 13:33:56 62° 102° (ESE) 13:38:16 145.980
ESTCUBE 1 15 Dec 13:37:31 13:40:49 20° 297° (WNW) 13:44:05 437.505/2401.250
nSIGHT-1 15 Dec 13:38:34 13:41:32 34° 343° (NNW) 13:44:33 .
AO-7 15 Dec 13:40:27 13:47:25 31° 53° (NE) 13:54:25 .
50 SAT 15 Dec 13:54:27 13:56:55 21° 95° (E) 13:59:21 437.505
SPROUT 15 Dec 14:03:32 14:07:21 34° 291° (WNW) 14:11:11 437.525
UKube-1 15 Dec 14:05:20 14:08:33 20° 93° (E) 14:11:43 .
AO-91 15 Dec 14:05:32 14:10:00 36° 262° (W) 14:14:05 145.960
YUBILEINY 15 Dec 14:07:50 14:16:28 53° 74° (ENE) 14:24:59 435.215
Gurwin Techsat 1B 15 Dec 14:08:52 14:14:01 51° 260° (W) 14:19:13 435.225
M-CUBED/EXP-1 PRIME 15 Dec 14:20:07 14:24:01 31° 61° (ENE) 14:28:05 437.505
DX 1 15 Dec 14:22:22 14:26:35 48° 100° (E) 14:30:46 434.975-435.025
ISS 15 Dec 14:24:14 14:27:09 27° 350° (N) 14:30:03 437.550
ITAMSAT 1 15 Dec 14:34:39 14:38:58 27° 63° (ENE) 14:43:19 435.822/435.867
RS-15 15 Dec 14:42:01 14:53:47 55° 113° (ESE) 15:05:27 29.354- 29.394
NO-84 15 Dec 14:56:16 14:59:07 20° 230° (SW) 15:02:05 435.350 FM
ITUPSAT 1 15 Dec 14:57:47 14:59:25 12° 88° (E) 15:01:02 437.325
Oscar 19 15 Dec 15:02:14 15:04:35 13° 272° (W) 15:06:57 437.125/150
VELOX 1 15 Dec 15:07:17 15:09:52 16° 299° (WNW) 15:12:27 145.980
nSIGHT-1 15 Dec 15:15:38 15:18:21 24° 4° (N) 15:21:05 .
DOVE 4 15 Dec 15:19:11 15:22:06 15° 60° (ENE) 15:24:59 437.250
50 SAT 15 Dec 15:26:21 15:28:45 20° 292° (WNW) 15:31:08 437.505
AO-7 15 Dec 15:31:17 15:39:33 71° 254° (WSW) 15:47:55 .
SO-50 15 Dec 15:33:30 15:37:38 39° 118° (ESE) 15:41:50 436.795
MOZHAYETS 4 15 Dec 15:34:19 15:38:43 41° 98° (E) 15:43:04
UKube-1 15 Dec 15:40:40 15:44:43 40° 290° (WNW) 15:48:45 .
M-CUBED/EXP-1 PRIME 15 Dec 15:54:25 15:58:18 31° 260° (W) 16:02:24 437.505
DX 1 15 Dec 15:59:24 16:02:24 19° 297° (WNW) 16:05:24 434.975-435.025
ISS 15 Dec 16:01:21 16:04:16 28° 10° (N) 16:07:11 437.550
BEESAT 15 Dec 16:04:02 16:08:43 53° 101° (E) 16:13:22 436.000
YUBILEINY 15 Dec 16:05:07 16:12:56 37° 276° (W) 16:20:42 435.215
ITAMSAT 1 15 Dec 16:13:16 16:18:13 43° 261° (W) 16:23:12 435.822/435.867
ITUPSAT 1 15 Dec 16:33:02 16:37:50 83° 286° (WNW) 16:42:37 437.325
XW-2C 15 Dec 16:36:40 16:37:31 11° 61° (ENE) 16:38:23 145.795 - 145.815
nSIGHT-1 15 Dec 16:51:53 16:55:02 50° 23° (NNE) 16:58:11 .
DOVE 4 15 Dec 16:53:53 16:59:09 84° 258° (WSW) 17:04:17 437.250
RS-15 15 Dec 16:54:18 17:06:24 57° 317° (NW) 17:18:19 29.354- 29.394
CUBESAT XI-V 15 Dec 17:00:14 17:04:59 76° 101° (ESE) 17:09:41 437.345
HO-68 15 Dec 17:00:49 17:05:43 20° 52° (NE) 17:10:36 435.675
LilacSat-2 15 Dec 17:11:45 17:15:00 27° 69° (ENE) 17:18:17 437.200
MOZHAYETS 4 15 Dec 17:11:57 17:15:37 24° 295° (WNW) 17:19:17
SO-50 15 Dec 17:14:11 17:18:10 30° 317° (NW) 17:22:12 436.795
